• In Deutschland
  • Länderverzeichnis
  • Für 7 Tage
  • Wassertemperatur
  • Satellitenkarten
  • Wetterkarte
  • Widgets
  • user-avatar
    Anmelden

    Stündliche Wetter Korobchino

    Heute, 24 Oktober, Mittwoch

    Zeit Temperatur Niederschläge Wind Luftdruck Luftfeuchtigkeit
    00:00 +2°C° 0.6 mm 6 m/S 724 mmHg 82%
    01:00 +2°C° 0.6 mm 6 m/S 723 mmHg 83%
    02:00 +2°C° 0.6 mm 6 m/S 722 mmHg 84%
    03:00 +2°C° 0.5 mm 6 m/S 721 mmHg 85%
    04:00 +2°C° 0.5 mm 5 m/S 720 mmHg 87%
    05:00 +2°C° 0.5 mm 5 m/S 719 mmHg 88%
    06:00 +4°C° 0.2 mm 4 m/S 719 mmHg 89%
    07:00 +4°C° 0.2 mm 4 m/S 719 mmHg 90%
    08:00 +4°C° 0.2 mm 3 m/S 718 mmHg 91%
    09:00 +4°C° 0.2 mm 3 m/S 718 mmHg 89%
    10:00 +6°C° 0.2 mm 2 m/S 718 mmHg 87%
    11:00 +6°C° 0.2 mm 2 m/S 718 mmHg 84%
    12:00 +7°C° 0.4 mm 1 m/S 718 mmHg 83%
    13:00 +8°C° 0.4 mm 1 m/S 718 mmHg 82%
    14:00 +8°C° 0.4 mm 1 m/S 718 mmHg 81%
    15:00 +7°C° 0.4 mm 1 m/S 719 mmHg 83%
    16:00 +7°C° 0.4 mm 1 m/S 719 mmHg 86%
    17:00 +6°C° 0.4 mm 2 m/S 719 mmHg 88%
    18:00 +5°C° 0.3 mm 2 m/S 719 mmHg 88%
    19:00 +5°C° 0.3 mm 2 m/S 720 mmHg 89%
    20:00 +4°C° 0.3 mm 3 m/S 720 mmHg 90%
    21:00 +4°C° 0.2 mm 3 m/S 720 mmHg 90%
    22:00 +4°C° 0.2 mm 4 m/S 721 mmHg 91%
    23:00 +3°C° 0.2 mm 4 m/S 721 mmHg 92%

    Morgen, 25 Oktober, Donnerstag

    Zeit Temperatur Niederschläge Wind Luftdruck Luftfeuchtigkeit
    00:00 +2°C° 0.2 mm 5 m/S 722 mmHg 91%
    01:00 +2°C° 0.2 mm 5 m/S 722 mmHg 90%
    02:00 +2°C° 0.2 mm 6 m/S 723 mmHg 89%
    03:00 +2°C° 0.2 mm 6 m/S 723 mmHg 87%
    04:00 +2°C° 0.2 mm 6 m/S 723 mmHg 86%
    05:00 +2°C° 0.2 mm 6 m/S 723 mmHg 84%
    06:00 +2°C° 0.1 mm 6 m/S 724 mmHg 83%
    07:00 +2°C° 0.1 mm 7 m/S 725 mmHg 81%
    08:00 +2°C° 0.1 mm 7 m/S 725 mmHg 80%
    09:00 +2°C° 0 mm 7 m/S 726 mmHg 78%
    10:00 +2°C° 0 mm 7 m/S 726 mmHg 75%
    11:00 +2°C° 0 mm 7 m/S 727 mmHg 73%
    12:00 +2°C° 0 mm 6 m/S 727 mmHg 73%
    13:00 +2°C° 0 mm 6 m/S 727 mmHg 72%
    14:00 +2°C° 0 mm 6 m/S 727 mmHg 71%
    15:00 +2°C° 0 mm 5 m/S 727 mmHg 73%
    16:00 +2°C° 0 mm 5 m/S 727 mmHg 75%
    17:00 +1°C° 0 mm 4 m/S 727 mmHg 77%
    18:00 +1°C° 0 mm 4 m/S 728 mmHg 76%
    19:00 +2°C° 0 mm 3 m/S 728 mmHg 76%
    20:00 +2°C° 0 mm 3 m/S 728 mmHg 76%
    21:00 +2°C° 0 mm 2 m/S 728 mmHg 78%
    22:00 +2°C° 0 mm 2 m/S 728 mmHg 80%
    23:00 +1°C° 0 mm 2 m/S 728 mmHg 82%

    übermorgen, 26 Oktober, Freitag

    Zeit Temperatur Niederschläge Wind Luftdruck Luftfeuchtigkeit
    00:00 +1°C° 0 mm 2 m/S 728 mmHg 83%
    01:00 +1°C° 0 mm 2 m/S 728 mmHg 84%
    02:00 +1°C° 0 mm 2 m/S 728 mmHg 85%
    03:00 +1°C° 0 mm 2 m/S 729 mmHg 87%
    04:00 +1°C° 0 mm 2 m/S 729 mmHg 89%
    05:00 -1°C° 0 mm 2 m/S 729 mmHg 91%
    06:00 0°C° 0 mm 3 m/S 730 mmHg 90%
    07:00 +1°C° 0 mm 3 m/S 730 mmHg 90%
    08:00 +1°C° 0 mm 3 m/S 730 mmHg 89%
    09:00 +1°C° 0.1 mm 4 m/S 731 mmHg 85%
    10:00 +2°C° 0.1 mm 5 m/S 731 mmHg 81%
    11:00 +3°C° 0.1 mm 5 m/S 731 mmHg 77%
    12:00 +3°C° 0.2 mm 5 m/S 731 mmHg 75%
    13:00 +3°C° 0.2 mm 5 m/S 732 mmHg 74%
    14:00 +3°C° 0.2 mm 5 m/S 732 mmHg 73%
    15:00 +2°C° 0 mm 5 m/S 732 mmHg 77%
    16:00 +3°C° 0 mm 4 m/S 733 mmHg 80%
    17:00 +2°C° 0 mm 3 m/S 733 mmHg 84%
    18:00 +2°C° 0 mm 3 m/S 733 mmHg 85%
    19:00 +2°C° 0 mm 3 m/S 733 mmHg 86%
    20:00 +2°C° 0 mm 3 m/S 734 mmHg 87%
    21:00 +2°C° 0 mm 3 m/S 734 mmHg 88%
    22:00 +1°C° 0 mm 3 m/S 734 mmHg 89%
    23:00 +1°C° 0 mm 3 m/S 733 mmHg 91%

    27 Oktober, Samstag

    Zeit Temperatur Niederschläge Wind Luftdruck Luftfeuchtigkeit
    00:00 +1°C° 0.1 mm 4 m/S 733 mmHg 90%
    01:00 +2°C° 0.1 mm 5 m/S 733 mmHg 90%
    02:00 +2°C° 0.1 mm 5 m/S 733 mmHg 90%
    03:00 +2°C° 0.4 mm 6 m/S 732 mmHg 88%
    04:00 +3°C° 0.4 mm 7 m/S 731 mmHg 86%
    05:00 +2°C° 0.4 mm 8 m/S 730 mmHg 85%
    06:00 +2°C° 0.3 mm 8 m/S 729 mmHg 85%
    07:00 +4°C° 0.3 mm 8 m/S 729 mmHg 86%
    08:00 +3°C° 0.3 mm 9 m/S 728 mmHg 86%
    09:00 +5°C° 0.5 mm 9 m/S 728 mmHg 84%
    10:00 +5°C° 0.5 mm 9 m/S 728 mmHg 81%
    11:00 +6°C° 0.5 mm 10 m/S 728 mmHg 79%
    12:00 +6°C° 0.2 mm 10 m/S 728 mmHg 74%
    13:00 +6°C° 0.2 mm 10 m/S 728 mmHg 69%
    14:00 +6°C° 0.2 mm 10 m/S 729 mmHg 64%
    15:00 +5°C° 0.1 mm 9 m/S 730 mmHg 67%
    16:00 +5°C° 0.1 mm 9 m/S 730 mmHg 71%
    17:00 +4°C° 0.1 mm 8 m/S 731 mmHg 74%
    18:00 +4°C° 0.1 mm 7 m/S 732 mmHg 75%
    19:00 +3°C° 0.1 mm 7 m/S 733 mmHg 76%
    20:00 +3°C° 0.1 mm 6 m/S 734 mmHg 76%
    21:00 +2°C° 0 mm 6 m/S 735 mmHg 79%
    22:00 +1°C° 0 mm 5 m/S 736 mmHg 82%
    23:00 0°C° 0 mm 4 m/S 737 mmHg 86%

    28 Oktober, Sonntag

    Zeit Temperatur Niederschläge Wind Luftdruck Luftfeuchtigkeit
    00:00 0°C° 0 mm 4 m/S 737 mmHg 88%
    01:00 0°C° 0 mm 3 m/S 738 mmHg 90%
    02:00 -1°C° 0 mm 2 m/S 739 mmHg 92%
    03:00 -1°C° 0 mm 2 m/S 739 mmHg 92%
    04:00 -1°C° 0 mm 2 m/S 740 mmHg 93%
    05:00 -1°C° 0 mm 2 m/S 741 mmHg 93%
    06:00 -1°C° 0 mm 2 m/S 742 mmHg 91%
    07:00 -1°C° 0 mm 2 m/S 742 mmHg 90%
    08:00 +1°C° 0 mm 2 m/S 743 mmHg 88%
    09:00 +2°C° 0 mm 2 m/S 744 mmHg 82%
    10:00 +3°C° 0 mm 2 m/S 744 mmHg 76%
    11:00 +3°C° 0 mm 3 m/S 745 mmHg 70%
    12:00 +5°C° 0 mm 2 m/S 745 mmHg 68%
    13:00 +5°C° 0 mm 2 m/S 746 mmHg 66%
    14:00 +5°C° 0 mm 2 m/S 746 mmHg 64%
    15:00 +4°C° 0 mm 2 m/S 746 mmHg 69%
    16:00 +4°C° 0 mm 1 m/S 747 mmHg 74%
    17:00 +3°C° 0 mm 1 m/S 747 mmHg 78%
    18:00 +3°C° 0 mm 1 m/S 748 mmHg 79%
    19:00 +2°C° 0 mm 1 m/S 748 mmHg 79%
    20:00 +2°C° 0 mm 1 m/S 748 mmHg 79%
    21:00 +1°C° 0 mm 2 m/S 749 mmHg 79%
    22:00 +2°C° 0 mm 2 m/S 749 mmHg 79%
    23:00 +2°C° 0 mm 2 m/S 749 mmHg 79%

    29 Oktober, Montag

    Zeit Temperatur Niederschläge Wind Luftdruck Luftfeuchtigkeit
    00:00 +2°C° 0.1 mm 2 m/S 749 mmHg 79%
    01:00 +2°C° 0.1 mm 2 m/S 749 mmHg 80%
    02:00 +1°C° 0.1 mm 3 m/S 749 mmHg 80%
    03:00 +1°C° 0.3 mm 3 m/S 749 mmHg 81%
    04:00 +1°C° 0.3 mm 3 m/S 749 mmHg 82%
    05:00 +1°C° 0.3 mm 3 m/S 749 mmHg 83%
    06:00 0°C° 0.3 mm 4 m/S 749 mmHg 84%
    07:00 0°C° 0.3 mm 4 m/S 749 mmHg 85%
    08:00 0°C° 0.3 mm 5 m/S 748 mmHg 85%
    09:00 0°C° 0.3 mm 5 m/S 748 mmHg 86%
    10:00 0°C° 0.3 mm 5 m/S 748 mmHg 87%
    11:00 -1°C° 0.3 mm 6 m/S 748 mmHg 88%
    12:00 -1°C° 0.2 mm 6 m/S 747 mmHg 88%
    13:00 -1°C° 0.2 mm 6 m/S 747 mmHg 89%
    14:00 -1°C° 0.2 mm 7 m/S 746 mmHg 89%
    15:00 -1°C° 0.4 mm 6 m/S 746 mmHg 90%
    16:00 -1°C° 0.4 mm 6 m/S 745 mmHg 91%
    17:00 -1°C° 0.4 mm 6 m/S 745 mmHg 91%
    18:00 -1°C° 0.1 mm 6 m/S 744 mmHg 92%
    19:00 -1°C° 0.1 mm 6 m/S 744 mmHg 92%
    20:00 -1°C° 0.1 mm 6 m/S 744 mmHg 93%
    21:00 -1°C° 0.1 mm 6 m/S 743 mmHg 93%
    22:00 +1°C° 0.1 mm 6 m/S 743 mmHg 93%
    23:00 +1°C° 0.1 mm 6 m/S 743 mmHg 94%

    30 Oktober, Dienstag

    Zeit Temperatur Niederschläge Wind Luftdruck Luftfeuchtigkeit
    00:00 +1°C° 0.1 mm 6 m/S 743 mmHg 94%
    01:00 +1°C° 0.1 mm 6 m/S 742 mmHg 94%
    02:00 +1°C° 0.1 mm 5 m/S 742 mmHg 95%
    03:00 +2°C° 0.1 mm 5 m/S 742 mmHg 95%
    04:00 +2°C° 0.1 mm 5 m/S 742 mmHg 95%
    05:00 +2°C° 0.1 mm 6 m/S 742 mmHg 95%
    06:00 +2°C° 0.1 mm 6 m/S 742 mmHg 94%
    07:00 +2°C° 0.1 mm 5 m/S 742 mmHg 94%
    08:00 +3°C° 0.1 mm 5 m/S 742 mmHg 93%
    09:00 +3°C° 0 mm 5 m/S 743 mmHg 92%
    10:00 +5°C° 0 mm 5 m/S 743 mmHg 91%
    11:00 +5°C° 0 mm 5 m/S 744 mmHg 89%
    12:00 +6°C° 0 mm 5 m/S 744 mmHg 89%
    13:00 +6°C° 0 mm 5 m/S 744 mmHg 88%
    14:00 +6°C° 0 mm 5 m/S 744 mmHg 88%
    15:00 +5°C° 0 mm 6 m/S 745 mmHg 89%
    16:00 +4°C° 0 mm 6 m/S 745 mmHg 90%
    17:00 +4°C° 0 mm 6 m/S 745 mmHg 91%
    18:00 +4°C° 0 mm 6 m/S 746 mmHg 91%
    19:00 +4°C° 0 mm 6 m/S 746 mmHg 90%
    20:00 +4°C° 0 mm 6 m/S 746 mmHg 89%
    21:00 +4°C° 0 mm 6 m/S 747 mmHg 89%
    22:00 +4°C° 0 mm 7 m/S 747 mmHg 89%
    23:00 +3°C° 0 mm 7 m/S 747 mmHg 88%
    Mehr zeigen